Regional Weather Roundup
Issued by NWS San Diego, CA

Home | Current Version | Previous Version | Text Only | Print | Product List | Glossary On
Versions: 1 2 3 4 5 6 7 8 9 10 11 12 13 14 15 16 17 18 19 20 21 22 23 24 25 26 27 28 29 30 31 32 33 34 35 36 37 38 39 40 41 42 43 44 45 46 47 48 49 50
000
ASUS46 KSGX 311811
RWRSGX

SAN DIEGO HOURLY WEATHER ROUNDUP
NATIONAL WEATHER SERVICE SAN DIEGO CA
1100 AM PDT FRI JUL 31 2015

NOTE: "FAIR" INDICATES FEW OR NO CLOUDS BELOW 12,000 FEET WITH NO
SIGNIFICANT WEATHER AND/OR OBSTRUCTIONS TO VISIBILITY.

CAZ042-043-060-061-PZZ750-775-311900-

GREATER SAN DIEGO AREA

CITY           SKY/WX    TMP DP  RH WIND       PRES   REMARKS
LINDBERGH FLD  PTSUNNY   77  65  66 W8        30.04S
POINT LOMA       N/A     74  64  72 W13         N/A
NATIONAL CITY    N/A     76  69  77 S3        30.03F
CHULA VISTA      N/A     77  70  78 W3        29.96S
IMPERIAL BEACH PTSUNNY   76  65  68 W9        30.03F
BROWN FIELD    SUNNY     78  66  66 W8        30.03F
MIRAMAR MCAS   MOSUNNY   82  64  54 VRB6      30.03F
MONTGOMERY FLD SUNNY     81  65  58 NW6       30.03F

$$

NORTH SAN DIEGO COUNTY

CITY           SKY/WX    TMP DP  RH WIND       PRES   REMARKS
CAMP PENDLETON MOSUNNY   78  65  63 VRB6      30.02F
OCEANSIDE AP   SUNNY     78  66  66 W9        30.02S
OCEANSIDE HBR    N/A     71  68  89 W9        30.05S
VISTA            N/A     77  68  72 W5        30.00F
CARLSBAD       SUNNY     76  65  68 NW5       30.02F
DEL MAR          N/A     74  68  81 CALM      30.05S
FALLBROOK        N/A     80  69  69 CALM      30.02F
ESCONDIDO        N/A     84  69  60 CALM      30.03F
POWAY            N/A     84  69  60 W2        30.02F

$$

EAST SAN DIEGO COUNTY

CITY           SKY/WX    TMP DP  RH WIND       PRES   REMARKS
RAMONA         MOSUNNY   83  61  47 NW7       30.05F
SANTEE LAKES     N/A     84  69  60 SE9       30.00F
LA MESA          N/A     79  68  67 NW3       29.95F
JAMUL            N/A     81  67  61 W1        30.00F
DESCANSO N       N/A     83  60  46 W6        29.89R
CAMPO            N/A     86  54  33 SW9       30.07S

$$

ORANGE COUNTY AND THE LOS ANGELES BASIN

CITY           SKY/WX    TMP DP  RH WIND       PRES   REMARKS
JOHN WAYNE AP  PTSUNNY   76  66  71 CALM      30.03S
LAKE FOREST FR   N/A     78  66  67 CALM      29.92F
SANTA ANA        N/A     77  70  78 CALM      29.98F
HUNTINGTON BCH   N/A     75  69  80 SW3       30.06S
LOS ALAMITOS   CLOUDY    76  67  75 SW6       30.03F
FULLERTON      PTSUNNY   78  67  68 SW7       30.02F
LONG BEACH     CLOUDY    75  66  73 CALM      30.04S
L.A. AP        CLOUDY    74  67  78 SW5       30.04F
L.A. DOWNTOWN  MOSUNNY   78  66  66 CALM      30.02F

$$

THE INLAND EMPIRE

CITY           SKY/WX    TMP DP  RH WIND       PRES   REMARKS
CORONA         SUNNY     83  67  58 W5        30.03F
CHINO          MOSUNNY   85  66  53 VRB3      30.04F
ONTARIO        PTSUNNY   84  64  50 S7        30.04S
SAN BERNARDINO MOSUNNY   82  63  51 SW6       30.05S HAZE
RIVERSIDE AP   SUNNY     84  66  54 VRB5      30.04S
MORENO VALLEY    N/A     84  71  65 S1        30.02S
MARCH ARB      SUNNY     85  66  52 NW7       30.06S
HORSETHIEF CYN   N/A     84  63  48 NW3       30.03S
PERRIS           N/A     85  65  50 S3        30.05S
MENIFEE          N/A     86  64  47 S1        30.11S
HEMET EAST       N/A     83  63  51 CALM      30.02S
FRENCH VALLEY  FAIR      84  59  42 SW5       30.06S
TEMECULA         N/A     83  67  58 NW2       30.00S

$$

SAN BERNARDINO AND RIVERSIDE COUNTY MOUNTAINS

CITY           SKY/WX    TMP DP  RH WIND       PRES   REMARKS
BIG BEAR AP    SUNNY     72  50  46 NE5       30.38S
ANGELUS OAKS     N/A     73  60  65 CALM      29.93S
PINE COVE        N/A     74  59  58 CALM      30.01R

$$

SOUTHERN DESERT INCLUDING THE COACHELLA VALLEY

CITY           SKY/WX    TMP DP  RH WIND       PRES   REMARKS
PALM SPRINGS   MOSUNNY  100  63  29 VRB5      29.94F HX 102
THOUSAND PALMS   N/A     99  64  31 SW2       29.90F HX 101
THERMAL        MOSUNNY  102  63  27 NE6       29.88S HX 104
BLYTHE         SUNNY     98  62  30 CALM      29.93F HX  99
IMPERIAL AP    SUNNY    101  62  27 VRB5      29.89S HX 102
EL CENTRO NAS  PTSUNNY  102  58  23 W5        29.91S HX 102
YUMA AZ        MOSUNNY  103  61  25 VRB6      29.91S HX 104
MEXICALI       PTSUNNY  100  61  27 N3        29.91  HX 101

$$

UPPER DESERT

CITY           SKY/WX    TMP DP  RH WIND       PRES   REMARKS
VICTORVILLE AP SUNNY     88  57  35 CALM      30.11S
HESPERIA         N/A     90  65  42 CALM      30.05S
APPLE VALLEY     N/A     90  61  37 S2        30.11S
PALMDALE       SUNNY     90  60  36 CALM      30.08S
LANCASTER      SUNNY     93  60  33 SE6       30.07S
EDWARDS AFB    PTSUNNY   90  58  33 VRB1      30.05S
DAGGETT        SUNNY     94  60  32 NW10      30.04S
29 PALMS N     MOSUNNY   91  60  35 E3        30.11F
NEEDLES        SUNNY     97  63  32 VRB3      29.97S HX  98

$$

REGIONAL REPORTS

CITY           SKY/WX    TMP DP  RH WIND       PRES   REMARKS
SANTA BARBARA  SUNNY     73  64  73 S8        30.04S
SANDBERG         N/A     81  61  50 SW13      30.23
LAS VEGAS NV   MOSUNNY   97  51  21 E10       30.01S
PHOENIX AZ     PTSUNNY  102  58  23 S10       29.95S HX 102
TIJUANA        MOSUNNY   79  61  53 N7        30.05F
ENSENADA NW      N/A     72  32  22 W6        29.99S

$$

OFFSHORE ISLANDS

CITY           SKY/WX    TMP DP  RH WIND       PRES   REMARKS
CATALINA ARPT  MOSUNNY   71  64  78 NE6       30.09S
SAN CLEMENTE I PTSUNNY   70  59  68 SW8       30.07R
SAN NICOLAS IS FAIR     N/A N/A N/A SW9       30.05S

$$

MARINE AND OFFSHORE BUOY REPORTS

STATION/POSITION SKY/WX   TEMP    WIND        PRES    SWELL
                          AIR SEA DIR/SP/G            HT/PER/DIR
                          (F)     (DEG/KT/KT) (MB)    (FT/S/D)
TANNER BANKS               67 68  320/  8/ 10 1017.6R   3/190/16
S CLEMENTE BASIN           67 70  290/  8/ 10 1017.3R   3/200/17
SAN NICOLAS IS.               66                N/A     3/220/14
SO. S. ROSA ISLA           65 68  330/ 10/ 12 1016.5    5/15
W. S. BARBARA CH           63 65  320/ 12/ 16 1016.5R   3/270/14
M. S. BARBARA CH           67 69  220/  4/  6 1017.5S
S. MONICA BASIN            68 74  170/  4/  6 1017.4R   2/220/14
S PEDRO CHANNEL               71                N/A     2/160/17
DANA POINT                    72                N/A     2/200/17
OCEANSIDE OFFSHR              73                N/A     3/210/17
TORREY PINES OTR              73                N/A     3/220/13
LA JOLLA 1                 71 71  330/  3/  6 1016.9F
MISSION BAY BUOY              72                N/A     2/210/14
SAN DIEGO BAY                 75              1017.5F
POINT LOMA SOUTH              71                N/A     3/210/13

$$




USA.gov is the U.S. government's official web portal to all federal, state and local government web resources and services.